EW9741 Weather Reports


time (UTC)temp
C
wind
direction
speed
KPH
gust
KPH
rain 1hr
cm
rain 24hr
cm
rain mn
cm
humidity
%
barometer
mb
20260503184541 15 203 0.0 29.0 0.00 0.00 0.00 37 1015.8
20260503183045 15 229 0.0 22.5 0.00 0.00 0.00 39 1015.9
20260503181539 15 252 0.0 0.0 0.00 0.00 0.00 39 1016.1
20260503180038 15 27 0.0 25.7 0.00 0.00 0.00 36 1016.4
20260503174534 15 240 0.0 0.0 0.00 0.00 0.00 35 1016.4
20260503173056 15 252 0.0 0.0 0.00 0.00 0.00 37 1016.7
20260503171532 15 186 0.0 0.0 0.00 0.00 0.00 36 1017.1
20260503081505 2 168 0.0 0.0 0.00 0.00 0.00 84 1017.1
20260503071558 2 238 0.0 0.0 0.00 0.00 0.00 79 1016.9
20260503054550 3 250 0.0 0.0 0.00 0.00 0.00 74 1017.4
20260503053050 2 262 0.0 0.0 0.00 0.00 0.00 75 1017.4
20260503051550 3 217 0.0 0.0 0.00 0.00 0.00 75 1017.5
20260503050047 2 184 0.0 0.0 0.00 0.00 0.00 77 1017.5
20260503044548 2 273 0.0 0.0 0.00 0.00 0.00 78 1017.5
20260503043046 2 24 0.0 0.0 0.00 0.00 0.00 78 1017.5
20260503041546 2 24 0.0 0.0 0.00 0.00 0.00 80 1017.5
20260503040042 2 24 0.0 0.0 0.00 0.00 0.00 79 1017.5
20260503034545 2 24 0.0 0.0 0.00 0.00 0.00 79 1017.5
20260503033040 2 24 0.0 0.0 0.00 0.00 0.00 78 1017.5
20260503031548 3 24 0.0 0.0 0.00 0.00 0.00 78 1017.5
20260503030035 3 24 0.0 0.0 0.00 0.00 0.00 77 1017.5
20260503024533 3 24 0.0 0.0 0.00 0.00 0.00 77 1017.6
20260503023031 3 24 0.0 0.0 0.00 0.00 0.00 72 1017.5
20260503021526 4 24 0.0 0.0 0.00 0.00 0.00 69 1017.4
20260503020019 5 24 0.0 0.0 0.00 0.00 0.00 65 1017.3
20260503014517 6 24 0.0 0.0 0.00 0.00 0.00 65 1017.2
20260503013023 6 24 0.0 0.0 0.00 0.00 0.00 58 1017.1
20260503011509 7 49 0.0 0.0 0.00 0.00 0.00 56 1016.8
20260503010005 7 13 0.0 0.0 0.00 0.00 0.00 54 1016.8
20260503004502 7 11 0.0 0.0 0.00 0.00 0.00 53 1016.6
20260503003103 8 43 0.0 1.6 0.00 0.00 0.00 51 1016.5
20260503001556 8 14 0.0 0.0 0.00 0.00 0.00 49 1016.3
20260503000107 9 42 0.0 0.0 0.00 0.00 0.00 47 1016.2
20260502234520 10 320 0.0 0.0 0.00 0.00 0.00 46 1016.0
20260502233018 10 46 0.0 1.6 0.00 0.00 0.00 44 1015.8
20260502231609 10 11 0.0 0.0 0.00 0.00 0.00 44 1015.8
20260502230045 10 312 0.0 3.2 0.00 0.00 0.00 42 1015.8
20260502224549 11 27 0.0 17.7 0.00 0.00 0.00 43 1015.7
20260502223040 10 4 0.0 12.9 0.00 0.00 0.00 43 1015.7
20260502221540 10 311 0.0 12.9 0.00 0.00 0.00 42 1015.6
20260502220047 10 60 0.0 14.5 0.00 0.00 0.00 42 1015.6
20260502214533 11 316 0.0 0.0 0.00 0.00 0.00 43 1015.5
20260502213033 10 75 0.0 0.0 0.00 0.00 0.00 40 1015.4
20260502211534 11 8 0.0 0.0 0.00 0.00 0.00 40 1015.3
20260502210031 11 352 0.0 1.6 0.00 0.00 0.00 41 1015.3
20260502204528 11 326 3.2 22.5 0.00 0.00 0.00 39 1015.3
20260502203028 11 82 0.0 14.5 0.00 0.00 0.00 40 1015.3
20260502201531 10 302 0.0 14.5 0.00 0.00 0.00 40 1015.5
20260502200028 10 339 0.0 17.7 0.00 0.00 0.00 40 1015.6
20260502194524 10 354 1.6 22.5 0.00 0.00 0.00 40 1015.6
20260502193024 10 340 0.0 1.6 0.00 0.00 0.00 40 1015.7
20260502191523 10 30 0.0 8.0 0.00 0.00 0.00 40 1015.8
20260502190027 10 297 0.0 16.1 0.00 0.00 0.00 41 1015.9